Vorticity
7 9 11 9 9 7 8 9 9 8 7 6 5 4 4 3 6 8 6 2 2 6 3 3 4 7 6 5 4 5 4 5 7 6 4 5 4 3 3 3 4 4 3
2 3 6 7 9 8 7 10 10 11 11 10 9 7 6 4 3 2 7 7 6 1 6 3 4 3 5 7 6 5 4 4 5 5 5 5 4 3 4 4 4 4 3
3 4 3 5 4 4 5 7 6 5 6 8 13 16 11 7 6 5 2 2 5 7 4 -0 5 4 4 3 4 6 5 4 4 5 5 6 5 4 3 4 3 4 4
2 2 3 4 4 7 5 4 3 5 5 5 4 3 6 14 16 9 7 5 1 3 3 8 5 3 6 5 4 3 3 5 5 4 5 5 5 5 5 5 5 4 4
3 2 2 4 4 4 4 4 5 6 5 5 3 5 5 5 5 9 16 12 7 5 4 4 5 6 3 4 5 5 5 4 3 3 4 4 4 5 5 5 5 4 4
4 3 3 3 5 2 1 1 3 3 3 5 0 4 4 4 4 4 4 7 14 12 6 5 3 0 4 6 4 2 6 5 4 6 4 3 2 3 3 3 4 3 4
2 2 3 3 3 3 4 3 2 1 2 5 3 2 3 3 1 2 3 4 4 6 9 12 7 5 3 -0 1 6 7 3 1 4 5 5 7 6 4 3 3 3 4
2 3 3 3 4 4 4 4 4 4 4 3 3 3 3 3 2 3 3 1 3 3 4 5 7 12 12 6 4 2 0 0 4 5 5 2 0 4 7 7 6 5 4
3 3 3 3 3 3 3 3 3 3 3 3 3 4 5 5 4 4 3 4 3 2 2 2 3 5 6 10 13 7 6 6 6 5 4 3 2 3 4 3 6 7 6
2 2 2 2 2 2 2 3 3 3 3 3 3 3 2 2 3 4 6 5 4 2 3 2 2 3 3 5 7 11 11 7 3 4 9 11 12 13 8 2 4 7 8
1 1 1 2 2 2 2 3 4 4 4 5 5 5 5 5 4 4 4 3 5 7 5 3 3 3 3 4 4 4 6 7 8 5 2 5 8 6 15 13 7 3 7
3 4 6 8 9 11 12 13 15 16 16 16 17 16 15 15 15 15 12 8 6 4 3 6 6 3 3 4 3 4 4 3 7 -1 2 2 2 3 3 10 15 11 6
9 14 16 18 18 16 14 11 8 5 4 3 3 3 3 3 3 3 5 5 9 12 14 13 8 3 5 6 5 4 4 5 3 7 -2 3 2 1 -1 5 6 13 8
16 13 8 4 2 1 2 2 3 3 3 3 2 2 2 3 2 1 1 1 2 3 4 5 6 8 13 9 5 7 4 4 5 4 5 2 2 3 3 2 4 10 13
3 1 1 1 3 4 4 3 3 2 2 2 2 3 3 3 3 3 3 3 3 3 3 3 2 1 4 6 8 12 6 6 4 3 4 5 4 4 4 4 5 5 13
3 3 4 4 4 3 2 2 3 3 4 4 4 4 4 5 5 5 6 6 6 5 6 6 6 5 4 3 2 6 6 11 7 6 5 3 4 4 3 4 4 6 -2
2 3 4 4 5 4 4 4 4 5 5 6 6 6 6 6 6 4 5 5 6 7 5 5 5 5 5 5 5 4 2 5 5 10 8 5 6 4 4 6 2 4 4
3 4 4 4 4 4 5 5 4 4 4 5 6 7 7 7 7 8 8 8 7 5 5 5 2 2 2 4 3 4 4 3 2 4 5 8 8 5 6 4 5 4 2
5 5 4 4 5 5 5 4 4 5 6 7 6 6 6 6 7 8 11 12 13 12 11 10 12 12 11 9 5 4 5 6 4 3 3 3 5 7 7 5 6 4 2
5 5 5 5 5 5 6 7 8 9 7 7 8 11 13 14 13 12 9 8 7 7 6 6 6 5 7 10 13 8 4 2 3 4 3 2 3 4 7 7 6 7 5
6 6 6 7 7 7 8 8 7 8 10 12 12 11 11 10 10 9 8 7 12 18 21 17 13 10 11 13 8 9 14 7 4 2 5 6 4 5 3 5 5 5 8
4 6 7 7 6 5 8 11 12 13 12 11 10 10 10 8 10 20 26 21 20 16 13 9 5 5 10 13 8 15 10 11 12 7 7 3 5 6 5 5 7 5 7
6 6 7 8 10 13 12 10 11 11 10 9 8 7 18 32 21 14 9 -0 3 21 29 36 25 17 22 22 11 14 16 15 8 12 8 8 6 3 3 4 2 4 2
7 11 13 14 13 10 10 12 11 7 7 15 29 33 18 14 12 10 9 6 11 -3 -5 23 38 30 28 34 32 4 20 18 11 7 11 8 8 10 10 10 8 9 5
19 15 14 11 9 11 12 8 8 17 30 22 27 17 4 14 7 2 3 4 -2 2 2 24 33 22 19 19 27 43 30 22 18 9 7 10 8 7 4 4 3 3 7
15 11 10 11 11 9 13 24 25 24 15 28 1 14 6 -1 10 -0 2 6 8 11 0 27 29 21 30 29 47 29 40 29 19 13 7 5 9 8 6 7 6 4 2
Height
5885 5885 5885 5885 5886 5887 5887 5887 5887 5886 5886 5886 5885 5885 5884 5884 5884 5883 5883 5883 5882 5882 5882 5881 5881 5881 5880 5879 5878 5878 5878 5878 5878 5878 5877 5876 5876 5875 5874 5874 5874 5873 5872
5885 5885 5886 5886 5886 5887 5887 5886 5886 5885 5885 5884 5884 5884 5884 5883 5883 5883 5882 5882 5882 5881 5881 5881 5881 5881 5880 5879 5879 5878 5877 5877 5877 5877 5877 5876 5876 5875 5875 5874 5873 5872 5871
5885 5886 5887 5887 5887 5887 5887 5886 5886 5885 5884 5884 5883 5883 5883 5882 5882 5882 5882 5881 5881 5881 5881 5880 5880 5879 5879 5879 5878 5878 5877 5876 5876 5876 5876 5875 5874 5874 5874 5873 5872 5871 5870
5886 5887 5887 5887 5888 5888 5887 5886 5886 5885 5884 5884 5883 5882 5881 5881 5881 5880 5880 5880 5880 5880 5879 5879 5879 5879 5878 5878 5877 5876 5876 5876 5875 5875 5875 5874 5874 5873 5872 5872 5871 5870 5869
5885 5887 5887 5887 5888 5887 5887 5886 5886 5885 5884 5883 5882 5881 5880 5879 5879 5878 5878 5879 5878 5878 5878 5878 5877 5877 5877 5877 5876 5875 5875 5875 5874 5874 5873 5873 5872 5872 5871 5870 5870 5869 5868
5885 5886 5886 5886 5886 5886 5886 5886 5885 5884 5883 5882 5881 5880 5879 5879 5878 5877 5876 5876 5875 5875 5875 5875 5875 5875 5874 5874 5873 5873 5873 5872 5872 5872 5871 5871 5870 5869 5869 5868 5867 5867 5866
5884 5884 5884 5884 5884 5884 5884 5884 5883 5882 5881 5880 5879 5878 5878 5877 5876 5875 5874 5874 5873 5872 5872 5871 5871 5872 5872 5871 5871 5870 5869 5869 5869 5868 5868 5867 5867 5867 5866 5866 5865 5864 5863
5881 5882 5882 5882 5881 5881 5881 5881 5880 5879 5878 5878 5877 5876 5875 5875 5874 5873 5872 5872 5871 5871 5870 5869 5868 5868 5868 5867 5867 5867 5867 5866 5865 5865 5864 5864 5863 5862 5862 5861 5861 5860 5860
5878 5878 5878 5878 5878 5878 5878 5877 5876 5876 5875 5874 5874 5873 5872 5871 5871 5870 5870 5869 5868 5868 5867 5866 5866 5865 5864 5863 5863 5862 5862 5862 5862 5861 5861 5859 5859 5858 5858 5857 5857 5856 5855
5875 5875 5875 5875 5875 5874 5874 5874 5873 5872 5872 5871 5870 5870 5868 5867 5867 5867 5866 5865 5864 5864 5863 5863 5862 5861 5861 5860 5859 5858 5857 5857 5857 5857 5857 5855 5854 5854 5853 5853 5852 5851 5851
5871 5871 5871 5870 5870 5870 5870 5869 5869 5868 5868 5867 5865 5865 5863 5862 5862 5862 5861 5860 5860 5859 5858 5858 5858 5857 5856 5856 5855 5855 5854 5853 5852 5851 5851 5851 5850 5849 5848 5847 5847 5846 5846
5867 5866 5866 5865 5865 5864 5864 5863 5863 5862 5862 5861 5860 5859 5858 5857 5856 5856 5856 5854 5854 5853 5853 5852 5852 5851 5851 5850 5850 5850 5849 5849 5848 5847 5846 5845 5845 5844 5843 5842 5841 5841 5841
5861 5861 5861 5860 5860 5859 5859 5859 5858 5858 5857 5857 5856 5855 5854 5853 5851 5851 5850 5851 5849 5848 5847 5847 5846 5845 5844 5844 5844 5843 5843 5843 5843 5842 5842 5840 5839 5838 5837 5836 5836 5835 5835
5857 5857 5857 5856 5856 5855 5855 5854 5853 5853 5852 5851 5850 5849 5849 5848 5846 5845 5844 5843 5842 5842 5842 5840 5839 5838 5837 5836 5835 5836 5836 5835 5835 5835 5835 5834 5834 5832 5831 5830 5829 5829 5829
5853 5853 5852 5852 5851 5851 5850 5849 5848 5847 5847 5846 5845 5844 5842 5842 5840 5839 5837 5836 5835 5833 5832 5832 5831 5830 5829 5828 5827 5827 5827 5828 5827 5827 5827 5827 5826 5826 5826 5825 5824 5823 5823
5847 5847 5847 5847 5846 5845 5845 5844 5843 5841 5840 5840 5838 5836 5835 5833 5832 5830 5829 5828 5826 5824 5823 5822 5821 5820 5821 5820 5820 5818 5818 5817 5817 5817 5818 5819 5818 5818 5818 5818 5818 5818 5817
5842 5842 5841 5841 5840 5839 5838 5837 5836 5835 5834 5832 5831 5829 5827 5824 5822 5820 5818 5816 5815 5814 5812 5810 5810 5809 5808 5807 5807 5809 5808 5808 5807 5807 5806 5808 5810 5810 5810 5811 5811 5811 5811
5836 5836 5835 5834 5833 5832 5831 5830 5829 5827 5825 5822 5820 5818 5816 5813 5810 5809 5807 5805 5803 5801 5799 5800 5797 5796 5795 5795 5794 5794 5795 5796 5796 5796 5796 5796 5798 5800 5801 5801 5803 5803 5803
5830 5830 5829 5828 5826 5825 5823 5821 5819 5817 5815 5812 5809 5806 5803 5801 5798 5796 5794 5792 5790 5788 5786 5783 5783 5781 5779 5779 5778 5779 5780 5781 5783 5784 5784 5785 5786 5788 5790 5792 5793 5794 5794
5824 5823 5822 5820 5819 5817 5815 5812 5810 5807 5804 5801 5798 5795 5792 5790 5787 5785 5783 5780 5777 5775 5772 5769 5766 5763 5764 5762 5760 5762 5764 5765 5768 5770 5771 5772 5774 5776 5779 5780 5783 5784 5785
5817 5816 5814 5812 5809 5807 5805 5802 5800 5797 5793 5790 5787 5785 5782 5780 5777 5775 5772 5769 5765 5762 5758 5753 5750 5746 5744 5742 5741 5743 5745 5748 5751 5754 5757 5759 5762 5763 5765 5768 5771 5773 5775
5809 5807 5804 5802 5799 5797 5795 5792 5789 5787 5783 5780 5777 5775 5772 5770 5767 5765 5761 5758 5754 5749 5744 5738 5732 5728 5725 5721 5718 5718 5725 5729 5733 5738 5742 5744 5748 5751 5754 5756 5758 5761 5764
5798 5796 5794 5791 5789 5786 5783 5781 5779 5776 5774 5771 5768 5766 5763 5760 5758 5756 5753 5749 5744 5738 5730 5720 5711 5703 5699 5696 5694 5693 5699 5708 5712 5719 5726 5730 5734 5738 5741 5744 5747 5750 5752
5788 5786 5783 5781 5778 5776 5773 5772 5769 5767 5765 5762 5758 5756 5755 5753 5751 5749 5745 5739 5733 5725 5716 5704 5691 5681 5674 5672 5671 5671 5674 5683 5690 5703 5708 5714 5720 5725 5728 5732 5735 5737 5740
5777 5775 5773 5771 5769 5767 5765 5763 5761 5758 5756 5753 5752 5751 5750 5748 5745 5741 5736 5730 5722 5715 5703 5689 5675 5667 5658 5651 5646 5646 5650 5659 5670 5682 5694 5701 5706 5712 5716 5719 5722 5725 5727
5768 5767 5765 5762 5761 5759 5757 5754 5752 5750 5749 5748 5748 5746 5745 5742 5739 5734 5727 5722 5714 5705 5693 5678 5664 5653 5641 5631 5626 5627 5632 5642 5652 5663 5675 5686 5692 5700 5704 5707 5711 5713 5715